Time,TemperatureF,DewpointF,PressureIn,WindDirection,WindDirectionDegrees,WindSpeedMPH,WindSpeedGustMPH,Humidity,HourlyPrecipIn,Conditions,Clouds,dailyrainin,SoftwareType,DateUTC
2015-06-03 00:02:00,69.6,69.0,29.96,SW,229,0.0,0.0,98,0.01,,,0.00,weatherlink.com 1.10,2015-06-03 04:02:00,
2015-06-03 00:17:00,69.6,69.0,29.95,SW,222,1.0,2.0,98,0.01,,,0.00,weatherlink.com 1.10,2015-06-03 04:17:00,
2015-06-03 00:32:00,69.5,69.0,29.93,SSW,212,0.0,1.0,98,0.01,,,0.00,weatherlink.com 1.10,2015-06-03 04:32:00,
2015-06-03 00:47:00,69.4,69.0,29.93,SSW,212,0.0,0.0,98,0.01,,,0.00,weatherlink.com 1.10,2015-06-03 04:47:00,
2015-06-03 01:02:00,69.4,69.0,29.95,NE,53,0.0,2.0,98,0.00,,,0.00,weatherlink.com 1.10,2015-06-03 05:02:00,
2015-06-03 01:17:00,69.5,69.0,29.96,ENE,70,0.0,1.0,98,0.00,,,0.00,weatherlink.com 1.10,2015-06-03 05:17:00,
2015-06-03 01:32:00,69.4,69.0,29.96,SSE,150,0.0,1.0,98,0.00,,,0.00,weatherlink.com 1.10,2015-06-03 05:32:00,
2015-06-03 01:47:00,69.3,69.0,29.97,South,187,0.0,1.0,98,0.00,,,0.00,weatherlink.com 1.10,2015-06-03 05:47:00,
2015-06-03 02:02:00,69.2,69.0,29.97,SSE,157,0.0,2.0,98,0.00,,,0.00,weatherlink.com 1.10,2015-06-03 06:02:00,
2015-06-03 02:17:00,69.1,69.0,29.96,SE,136,0.0,0.0,98,0.00,,,0.00,weatherlink.com 1.10,2015-06-03 06:17:00,
2015-06-03 02:32:00,68.9,68.0,29.95,SE,136,0.0,0.0,98,0.00,,,0.00,weatherlink.com 1.10,2015-06-03 06:32:00,
2015-06-03 02:47:00,68.7,68.0,29.95,SE,136,0.0,0.0,98,0.00,,,0.00,weatherlink.com 1.10,2015-06-03 06:47:00,
2015-06-03 03:02:00,68.4,68.0,29.94,SE,136,0.0,0.0,98,0.00,,,0.00,weatherlink.com 1.10,2015-06-03 07:02:00,
2015-06-03 03:17:00,68.0,68.0,29.93,SE,136,0.0,0.0,98,0.00,,,0.00,weatherlink.com 1.10,2015-06-03 07:17:00,
2015-06-03 03:33:00,67.7,67.0,29.93,SE,136,0.0,0.0,99,0.00,,,0.00,weatherlink.com 1.10,2015-06-03 07:33:00,
2015-06-03 03:47:00,67.5,67.0,29.92,SE,136,0.0,1.0,99,0.00,,,0.00,weatherlink.com 1.10,2015-06-03 07:47:00,
2015-06-03 04:02:00,67.7,67.0,29.92,SE,129,0.0,1.0,99,0.00,,,0.00,weatherlink.com 1.10,2015-06-03 08:02:00,
2015-06-03 04:17:00,67.5,67.0,29.93,SE,129,0.0,0.0,99,0.00,,,0.00,weatherlink.com 1.10,2015-06-03 08:17:00,
2015-06-03 04:32:00,67.3,67.0,29.93,SE,129,0.0,0.0,99,0.00,,,0.00,weatherlink.com 1.10,2015-06-03 08:32:00,
2015-06-03 04:47:00,67.1,67.0,29.93,SE,129,0.0,0.0,99,0.00,,,0.00,weatherlink.com 1.10,2015-06-03 08:47:00,
2015-06-03 05:02:00,66.7,66.0,29.93,SE,129,0.0,0.0,99,0.00,,,0.00,weatherlink.com 1.10,2015-06-03 09:02:00,
2015-06-03 05:17:00,66.5,66.0,29.93,SE,129,0.0,0.0,99,0.00,,,0.00,weatherlink.com 1.10,2015-06-03 09:17:00,
2015-06-03 05:32:00,66.2,66.0,29.94,SE,129,0.0,0.0,99,0.00,,,0.00,weatherlink.com 1.10,2015-06-03 09:32:00,
2015-06-03 05:47:00,65.7,65.0,29.94,SE,129,0.0,0.0,99,0.00,,,0.00,weatherlink.com 1.10,2015-06-03 09:47:00,
2015-06-03 06:02:00,65.5,65.0,29.94,SE,129,0.0,0.0,99,0.00,,,0.00,weatherlink.com 1.10,2015-06-03 10:02:00,
2015-06-03 06:17:00,65.5,65.0,29.94,SE,129,0.0,0.0,99,0.00,,,0.00,weatherlink.com 1.10,2015-06-03 10:17:00,
2015-06-03 06:32:00,65.8,66.0,29.95,SE,129,0.0,0.0,99,0.00,,,0.00,weatherlink.com 1.10,2015-06-03 10:32:00,
2015-06-03 06:47:00,66.1,66.0,29.95,SE,129,0.0,0.0,99,0.00,,,0.00,weatherlink.com 1.10,2015-06-03 10:47:00,
2015-06-03 07:02:00,66.6,66.0,29.95,SE,129,0.0,0.0,99,0.00,,,0.00,weatherlink.com 1.10,2015-06-03 11:02:00,
2015-06-03 07:17:00,67.1,67.0,29.95,SE,129,0.0,0.0,99,0.00,,,0.00,weatherlink.com 1.10,2015-06-03 11:17:00,
2015-06-03 07:32:00,68.5,68.0,29.95,SE,129,0.0,0.0,99,0.00,,,0.00,weatherlink.com 1.10,2015-06-03 11:32:00,
2015-06-03 07:47:00,68.6,68.0,29.95,SE,129,0.0,0.0,99,0.00,,,0.00,weatherlink.com 1.10,2015-06-03 11:47:00,
2015-06-03 08:02:00,69.2,69.0,29.95,SSE,160,0.0,1.0,99,0.00,,,0.00,weatherlink.com 1.10,2015-06-03 12:02:00,
2015-06-03 08:17:00,69.3,69.0,29.95,South,170,0.0,0.0,99,0.00,,,0.00,weatherlink.com 1.10,2015-06-03 12:17:00,
2015-06-03 08:32:00,69.7,69.0,29.96,South,170,0.0,0.0,99,0.00,,,0.00,weatherlink.com 1.10,2015-06-03 12:32:00,
2015-06-03 08:48:00,70.7,70.0,29.96,South,183,0.0,1.0,98,0.00,,,0.00,weatherlink.com 1.10,2015-06-03 12:48:00,
2015-06-03 09:03:00,72.5,70.0,29.96,SW,219,0.0,2.0,93,0.00,,,0.00,weatherlink.com 1.10,2015-06-03 13:03:00,
2015-06-03 09:18:00,74.4,71.0,29.96,SW,214,0.0,1.0,89,0.00,,,0.00,weatherlink.com 1.10,2015-06-03 13:18:00,
2015-06-03 09:33:00,76.8,72.0,29.96,SSE,158,0.0,1.0,86,0.00,,,0.00,weatherlink.com 1.10,2015-06-03 13:33:00,
2015-06-03 09:48:00,78.1,70.0,29.96,WSW,245,0.0,2.0,77,0.00,,,0.00,weatherlink.com 1.10,2015-06-03 13:48:00,
2015-06-03 10:03:00,78.9,70.0,29.96,SW,214,0.0,3.0,74,0.00,,,0.00,weatherlink.com 1.10,2015-06-03 14:03:00,
2015-06-03 10:18:00,79.9,71.0,29.96,WSW,242,1.0,2.0,73,0.00,,,0.00,weatherlink.com 1.10,2015-06-03 14:18:00,
2015-06-03 10:33:00,80.5,70.0,29.96,WSW,240,0.0,3.0,71,0.00,,,0.00,weatherlink.com 1.10,2015-06-03 14:33:00,
2015-06-03 10:48:00,82.0,70.0,29.96,South,176,1.0,3.0,66,0.00,,,0.00,weatherlink.com 1.10,2015-06-03 14:48:00,
2015-06-03 11:03:00,83.0,70.0,29.96,SSW,210,3.0,4.0,64,0.00,,,0.00,weatherlink.com 1.10,2015-06-03 15:03:00,
2015-06-03 11:18:00,83.8,68.0,29.96,East,94,1.0,3.0,60,0.00,,,0.00,weatherlink.com 1.10,2015-06-03 15:18:00,
2015-06-03 11:33:00,84.4,69.0,29.96,SSW,205,2.0,6.0,60,0.00,,,0.00,weatherlink.com 1.10,2015-06-03 15:33:00,
2015-06-03 11:48:00,84.8,68.0,29.96,East,89,2.0,4.0,57,0.00,,,0.00,weatherlink.com 1.10,2015-06-03 15:48:00,
2015-06-03 12:03:00,85.4,69.0,29.96,ESE,116,2.0,7.0,59,0.00,,,0.00,weatherlink.com 1.10,2015-06-03 16:03:00,
2015-06-03 12:18:00,85.2,67.0,29.95,ESE,102,3.0,7.0,55,0.00,,,0.00,weatherlink.com 1.10,2015-06-03 16:18:00,
2015-06-03 12:33:00,86.5,66.0,29.95,ENE,62,2.0,3.0,51,0.00,,,0.00,weatherlink.com 1.10,2015-06-03 16:33:00,
2015-06-03 12:48:00,86.2,67.0,29.95,SE,129,1.0,5.0,53,0.00,,,0.00,weatherlink.com 1.10,2015-06-03 16:48:00,
2015-06-03 13:03:00,85.4,68.0,29.95,SE,131,0.0,1.0,56,0.00,,,0.00,weatherlink.com 1.10,2015-06-03 17:03:00,